User: anonymous   Login
Location: Bangkok
(13.7500°N, 100.5170°E)
Time: 03:25:33
(UTC+07:00)
Language:

Cosmos 1898 Rocket - Orbit

View from above orbital plane
View from above orbital plane
View from above satellite
View from above satellite

Ground track
Ground track

The orbit data is extracted from the following two-line orbital elements,

1 18586U 87098B   15214.21989289  .00000112  00000-0  47138-4 0  9992
2 18586 074.0075 116.5143 0021426 332.2424 140.2687 14.36639782448990
Epoch (UTC): 02 August 2015 05:16:38
Eccentricity: 0.0021426
inclination: 74.0075°
perigee height: 754 km
apogee height: 785 km
right ascension of ascending node: 116.5143°
argument of perigee: 332.2424°
revolutions per day: 14.36639782
mean anomaly at epoch: 140.2687°
orbit number at epoch: 44899

The dashed part of the orbit path shows where the satellite is in the earth's shadow,  

DLR